Weather Roundup
Issued by NWS Chicago, IL

Home | Current Version | Previous Version | Text Only | Print | Product List | Glossary Off
Versions: 1 2 3 4 5 6 7 8 9 10 11 12 13 14 15 16 17 18 19 20 21 22 23 24 25 26 27 28 29 30 31 32 33 34 35 36 37 38 39 40 41 42 43 44 45 46 47 48 49 50

000
NZUS59 KLOT 251208
HRRLOT

CHICAGO AREA WEATHER ROUNDUP
NATIONAL WEATHER SERVICE CHICAGO/ROMEOVILLE IL
700 AM CDT WED MAY 25 2016

NOTE: "FAIR" INDICATES FEW OR NO CLOUDS BELOW 12,000 FEET WITH NO
SIGNIFICANT WEATHER AND/OR OBSTRUCTIONS TO VISIBILITY.

* THESE STATIONS ARE NOT UNDER NWS QUALITY CONTROL. THEY ALSO MAY NOT
  REPORT WEATHER SUCH AS PRECIPITATION OR FOG.

ILZ005-006-012>014-019>023-251300-
NORTHEAST ILLINOIS

CITY           SKY/WX    TMP DP  RH WIND       PRES   REMARKS
OHARE          MOSUNNY   69  61  75 S8        30.00R
6HR MIN TEMP:  64; 6HR MAX TEMP:  73;

MIDWAY         PTSUNNY   71  60  68 S8        30.01R
6HR MIN TEMP:  70; 6HR MAX TEMP:  75;

AURORA         SUNNY     68  62  81 S8        30.01R
6HR MIN TEMP:  63; 6HR MAX TEMP:  72;

LANSING*       SUNNY     67  59  75 SW3       30.02R
JOLIET*        MOSUNNY   69  63  82 SE3       30.02R
WAUKEGAN       PTSUNNY   71  63  75 SW8       29.99R
6HR MIN TEMP:  63; 6HR MAX TEMP:  71;

DUPAGE AIRPORT MOSUNNY   68  61  78 S8        30.00R
6HR MIN TEMP:  63; 6HR MAX TEMP:  70;

WHEELING       SUNNY     70  62  76 S5        30.01R
6HR MIN TEMP:  65; 6HR MAX TEMP:  74;

KANKAKEE*      MOSUNNY  N/A N/A N/A S8        30.04R
MORRIS*        SUNNY     68  62  80 S6        30.01R
LEWIS AIRPORT* PTSUNNY   68  60  76 S6        30.02R
$$

WIZ051-052-058>065-066-070>072-251300-
SOUTHEAST WISCONSIN

CITY           SKY/WX    TMP DP  RH WIND       PRES   REMARKS
MILWAUKEE      CLOUDY    67  57  70 CALM      29.99R
6HR MIN TEMP:  60; 6HR MAX TEMP:  67;

KENOSHA*       MOSUNNY   69  62  78 SW6       29.99R
RACINE*        MOSUNNY   70  61  73 SW3       30.01R
BURLINGTON     SUNNY     63  60  90 CALM      29.99R
WAUKESHA       SUNNY     63  61  94 S2        30.00R
WEST BEND      SUNNY     61  59  94 CALM      30.00R
$$

INZ001>003-010>013-019-020-251300-
NORTHWEST INDIANA

CITY           SKY/WX    TMP DP  RH WIND       PRES   REMARKS
GARY*          NOT AVBL
MICHIGAN CITY* NOT AVBL
RENSSELAER*    NOT AVBL
VALPARAISO     SUNNY     67  57  70 S7        30.03R
$$

LMZ740>746-251300-
SOUTHERN LAKE MICHIGAN

STATION/POSITION TIME  SKY/WX   TEMP WIND        PRES    VSBY
                                AIR  DIR/SP/G
                 (UTC)          (F)  (DEG/KT/KT) (MB)    (MI)
HARRISON CRIB    1100            68  180/ 11/ 12   N/A
BURNHAM HARBOR   1200            69  200/  6/  6   N/A
CALUMET HARBOR   1100                170/  6/  7   N/A
BURNS HARBOR     1100            69  160/  7/ 10 1015.9S
MICHIGAN CITY    1100            68  130/  6/  8   N/A
$$

ABBREVIATIONS USED IN REMARKS
   TC - TEMPERATURE IN CELSIUS
  WCI - WIND CHILL INDEX
   HX - HEAT INDEX
  VSB - VISIBILITY
$$




USA.gov is the U.S. government's official web portal to all federal, state and local government web resources and services.